Glenwood, MN

1:18 PM CDT on September 27, 2016 (GMT -0500)
Glenwood Municipal

Weather History for KGHW - October, 2012

Change the Weather History Date:

Sunday, October 7, 2012

  Actual Average Record
Temperature  
Mean Temperature 38 °F -  
Max Temperature 55 °F 62 °F 89 °F (2003)
Min Temperature 21 °F 38 °F 21 °F (2012)
Degree Days  
Heating Degree Days 27    
Moisture  
Dew Point 19 °F    
Average Humidity 55    
Maximum Humidity 93    
Minimum Humidity 23    
Precipitation  
Precipitation 0.00 in - - ()
Sea Level Pressure  
Sea Level Pressure 30.01 in    
Wind  
Wind Speed 9 mph (SSW)    
Max Wind Speed 22 mph    
Max Gust Speed 28 mph    
Visibility 10 miles    
Events      
Averages and records for this station are not official NWS values.
T = Trace of Precipitation, MM = Missing Value Source: NWS Daily Summary

Daily Weather History Graph

Daily Weather History Graph

Search for Another Location

Airport or City:

Trip Planner

Search our weather history database for the weather conditions in past years. The results will help you decide how hot, cold, wet, or windy it might be!

Date:

Astronomy

Oct. 07, 2012 Rise Set
Actual Time 7:27 AM CDT 6:49 PM CDT
Civil Twilight 6:58 AM CDT 7:18 PM CDT
Nautical Twilight 6:23 AM CDT 7:53 PM CDT
Astronomical Twilight 5:49 AM CDT 8:27 PM CDT
Moon 11:50 PM CDT (10/7) 2:18 PM CDT (10/7)
Length of Visible Light 12h 20m
Length of Day
11h 21m
Waning Gibbous, 56% of the Moon is Illuminated
Oct 7
Waning Gibbous
Oct 8
Last Quarter
Oct 15
New
Oct 21
First Quarter
Oct 29
Full

Hourly Weather History & Observations

Time (CDT) Temp. Windchill Dew Point Humidity Pressure Visibility Wind Dir Wind Speed Gust Speed Precip Events Conditions
12:14 AM 28.4 °F 23.3 °F 21.2 °F 74% 30.21 in 10.0 mi SW 4.6 mph - N/A   Clear
12:33 AM 26.6 °F 20.0 °F 21.2 °F 80% 30.21 in 10.0 mi SW 5.8 mph - N/A   Clear
12:53 AM 26.6 °F 19.1 °F 21.2 °F 80% 30.20 in 10.0 mi SW 6.9 mph - N/A   Clear
1:13 AM 24.8 °F 17.9 °F 21.2 °F 86% 30.20 in 10.0 mi SW 5.8 mph - N/A   Clear
1:33 AM 23.0 °F 15.8 °F 19.4 °F 86% 30.19 in 10.0 mi SW 5.8 mph - N/A   Clear
1:54 AM 24.8 °F 15.3 °F 19.4 °F 80% 30.19 in 10.0 mi SW 9.2 mph - N/A   Clear
2:13 AM 26.6 °F 16.2 °F 21.2 °F 80% 30.19 in 10.0 mi WSW 11.5 mph - N/A   Clear
2:33 AM 28.4 °F 18.0 °F 21.2 °F 74% 30.19 in 10.0 mi WSW 12.7 mph - N/A   Clear
2:54 AM 26.6 °F 16.8 °F 21.2 °F 80% 30.17 in 10.0 mi WSW 10.4 mph - N/A   Clear
3:13 AM 26.6 °F 17.5 °F 21.2 °F 80% 30.17 in 10.0 mi WSW 9.2 mph - N/A   Clear
3:53 AM 23.0 °F 14.7 °F 19.4 °F 86% 30.16 in 10.0 mi SW 6.9 mph - N/A   Clear
4:13 AM 23.0 °F 14.7 °F 19.4 °F 86% 30.15 in 10.0 mi SW 6.9 mph - N/A   Clear
4:33 AM 23.0 °F 14.7 °F 19.4 °F 86% 30.14 in 10.0 mi SW 6.9 mph - N/A   Clear
4:54 AM 23.0 °F 14.7 °F 19.4 °F 86% 30.14 in 10.0 mi SW 6.9 mph - N/A   Clear
5:13 AM 21.2 °F 12.6 °F 19.4 °F 93% 30.13 in 10.0 mi SW 6.9 mph - N/A   Clear
5:33 AM 23.0 °F 14.7 °F 19.4 °F 86% 30.13 in 10.0 mi SW 6.9 mph - N/A   Clear
5:53 AM 21.2 °F 12.6 °F 19.4 °F 93% 30.12 in 10.0 mi SSW 6.9 mph - N/A   Clear
6:13 AM 23.0 °F 13.9 °F 19.4 °F 86% 30.12 in 10.0 mi SSW 8.1 mph - N/A   Clear
6:34 AM 23.0 °F 13.9 °F 19.4 °F 86% 30.12 in 10.0 mi SSW 8.1 mph - N/A   Clear
6:53 AM 23.0 °F 14.7 °F 19.4 °F 86% 30.11 in 10.0 mi SW 6.9 mph - N/A   Clear
7:13 AM 21.2 °F 11.7 °F 19.4 °F 93% 30.10 in 10.0 mi SSW 8.1 mph - N/A   Clear
7:34 AM 21.2 °F 12.6 °F 19.4 °F 93% 30.10 in 10.0 mi SSW 6.9 mph - N/A   Clear
7:53 AM 21.2 °F 13.6 °F 19.4 °F 93% 30.10 in 10.0 mi SW 5.8 mph - N/A   Clear
8:13 AM 23.0 °F 15.8 °F 19.4 °F 86% 30.09 in 10.0 mi SW 5.8 mph - N/A   Clear
8:34 AM 26.6 °F 20.0 °F 21.2 °F 80% 30.09 in 10.0 mi SW 5.8 mph - N/A   Clear
8:53 AM 28.4 °F 21.2 °F 23.0 °F 80% 30.08 in 10.0 mi SSW 6.9 mph - N/A   Clear
9:13 AM 30.2 °F 23.4 °F 23.0 °F 75% 30.08 in 10.0 mi SSW 6.9 mph - N/A   Clear
9:34 AM 33.8 °F 26.4 °F 24.8 °F 70% 30.08 in 10.0 mi SSW 9.2 mph - N/A   Clear
9:53 AM 35.6 °F 28.0 °F 23.0 °F 60% 30.07 in 10.0 mi SSW 10.4 mph - N/A   Clear
10:13 AM 37.4 °F 29.8 °F 23.0 °F 56% 30.07 in 10.0 mi SSW 11.5 mph - N/A   Clear
10:34 AM 39.2 °F 32.0 °F 23.0 °F 52% 30.06 in 10.0 mi SSW 11.5 mph - N/A   Clear
10:53 AM 41.0 °F 33.9 °F 23.0 °F 49% 30.06 in 10.0 mi SW 12.7 mph - N/A   Clear
11:13 AM 42.8 °F 36.6 °F 21.2 °F 42% 30.05 in 10.0 mi SSW 11.5 mph - N/A   Clear
11:34 AM 46.4 °F 41.1 °F 21.2 °F 37% 30.05 in 10.0 mi SW 11.5 mph - N/A   Clear
11:53 AM 48.2 °F - 21.2 °F 34% 30.04 in 10.0 mi SSW 13.8 mph 17.3 mph N/A   Clear
12:13 PM 48.2 °F - 21.2 °F 34% 30.03 in 10.0 mi SSW 10.4 mph - N/A   Clear
12:34 PM 51.8 °F - 19.4 °F 28% 30.02 in 10.0 mi SSW 12.7 mph 18.4 mph N/A   Clear
12:53 PM 51.8 °F - 19.4 °F 28% 30.01 in 10.0 mi SSW 17.3 mph - N/A   Clear
1:33 PM 50.0 °F - 17.6 °F 28% 29.98 in 10.0 mi South 10.4 mph 16.1 mph N/A   Clear
1:53 PM 53.6 °F - 17.6 °F 24% 29.97 in 10.0 mi SW 15.0 mph 21.9 mph N/A   Clear
2:13 PM 53.6 °F - 17.6 °F 24% 29.95 in 10.0 mi SW 16.1 mph 21.9 mph N/A   Clear
2:33 PM 53.6 °F - 17.6 °F 24% 29.94 in 10.0 mi SW 16.1 mph - N/A   Clear
2:53 PM 53.6 °F - 17.6 °F 24% 29.93 in 10.0 mi SW 21.9 mph 27.6 mph N/A   Scattered Clouds
3:14 PM 55.4 °F - 17.6 °F 23% 29.92 in 10.0 mi SW 13.8 mph 24.2 mph N/A   Scattered Clouds
3:33 PM 53.6 °F - 17.6 °F 24% 29.92 in 10.0 mi SW 16.1 mph 23.0 mph N/A   Clear
3:53 PM 53.6 °F - 17.6 °F 24% 29.91 in 10.0 mi SSW 15.0 mph 18.4 mph N/A   Scattered Clouds
4:14 PM 53.6 °F - 17.6 °F 24% 29.90 in 10.0 mi SW 11.5 mph 21.9 mph N/A   Clear
4:33 PM 53.6 °F - 17.6 °F 24% 29.90 in 10.0 mi SW 13.8 mph - N/A   Scattered Clouds
4:53 PM 53.6 °F - 17.6 °F 24% 29.90 in 10.0 mi SW 12.7 mph - N/A   Scattered Clouds
5:14 PM 55.4 °F - 17.6 °F 23% 29.89 in 10.0 mi WSW 11.5 mph 17.3 mph N/A   Mostly Cloudy
5:33 PM 51.8 °F - 17.6 °F 26% 29.89 in 10.0 mi SW 12.7 mph - N/A   Mostly Cloudy
5:53 PM 53.6 °F - 17.6 °F 24% 29.88 in 10.0 mi SW 11.5 mph - N/A   Clear
6:14 PM 51.8 °F - 17.6 °F 26% 29.88 in 10.0 mi SW 9.2 mph - N/A   Clear
6:33 PM 48.2 °F - 17.6 °F 30% 29.88 in 10.0 mi SSW 8.1 mph - N/A   Clear
6:53 PM 44.6 °F 40.2 °F 15.8 °F 31% 29.87 in 10.0 mi SSW 8.1 mph - N/A   Clear
7:14 PM 42.8 °F 38.0 °F 15.8 °F 34% 29.87 in 10.0 mi South 8.1 mph - N/A   Clear
7:33 PM 39.2 °F 34.2 °F 15.8 °F 39% 29.87 in 10.0 mi South 6.9 mph - N/A   Clear
7:54 PM 39.2 °F 34.2 °F 15.8 °F 39% 29.87 in 10.0 mi South 6.9 mph - N/A   Clear
8:13 PM 39.2 °F 34.2 °F 15.8 °F 39% 29.86 in 10.0 mi South 6.9 mph - N/A   Clear
8:33 PM 39.2 °F 34.2 °F 15.8 °F 39% 29.86 in 10.0 mi South 6.9 mph - N/A   Clear
8:54 PM 37.4 °F 32.8 °F 15.8 °F 41% 29.85 in 10.0 mi South 5.8 mph - N/A   Clear
9:13 PM 37.4 °F 31.4 °F 15.8 °F 41% 29.85 in 10.0 mi South 8.1 mph - N/A   Clear
9:33 PM 37.4 °F 32.1 °F 15.8 °F 41% 29.85 in 10.0 mi South 6.9 mph - N/A   Clear
9:54 PM 35.6 °F 29.9 °F 15.8 °F 44% 29.84 in 10.0 mi South 6.9 mph - N/A   Clear
10:13 PM 33.8 °F 27.0 °F 17.6 °F 52% 29.84 in 10.0 mi South 8.1 mph - N/A   Clear
10:33 PM 33.8 °F 25.8 °F 15.8 °F 48% 29.83 in 10.0 mi South 10.4 mph - N/A   Clear
10:54 PM 35.6 °F 28.0 °F 17.6 °F 48% 29.82 in 10.0 mi South 10.4 mph - N/A   Clear
11:13 PM 35.6 °F 28.0 °F 17.6 °F 48% 29.82 in 10.0 mi South 10.4 mph - N/A   Clear
11:33 PM 35.6 °F 29.2 °F 17.6 °F 48% 29.82 in 10.0 mi South 8.1 mph - N/A   Clear
11:54 PM 33.8 °F 26.4 °F 17.6 °F 52% 29.81 in 10.0 mi South 9.2 mph - N/A   Clear